timestamp,surface_pressure_avg,surface_temp_avg,battery_voltage,lat,long
2019-06-24 00:00:00+00:00,260.6897,10.09,12.97,47.84626,-54.09684
2019-06-24 00:10:00+00:00,261.8581,10.1,12.89,47.84626,-54.09684
2019-06-24 00:20:00+00:00,265.3297,10.1,12.97,47.84626,-54.09684
2019-06-24 00:30:00+00:00,270.7597,10.0,12.97,47.84626,-54.09684
2019-06-24 00:40:00+00:00,272.7514,10.06,13.05,47.84626,-54.09684
2019-06-24 00:50:00+00:00,275.7297,10.1,13.05,47.84626,-54.09684
2019-06-24 01:00:00+00:00,281.2147,10.0,12.97,47.84626,-54.09684
2019-06-24 01:10:00+00:00,287.3813,9.98,12.89,47.84626,-54.09684
2019-06-24 01:20:00+00:00,290.1431,9.99,12.97,47.84626,-54.09684
2019-06-24 01:30:00+00:00,295.0664,10.0,12.97,47.84626,-54.09684
2019-06-24 01:40:00+00:00,301.168,10.0,12.97,47.84626,-54.09684
2019-06-24 01:50:00+00:00,305.0047,10.0,12.97,47.84626,-54.09684
2019-06-24 02:00:00+00:00,308.8447,10.0,12.89,47.84626,-54.09684
2019-06-24 02:10:00+00:00,315.3947,9.9,12.81,47.84626,-54.09684
2019-06-24 02:20:00+00:00,320.7296,9.9,12.97,47.84626,-54.09684
2019-06-24 02:30:00+00:00,324.1146,9.9,12.97,47.84626,-54.09684
2019-06-24 02:40:00+00:00,330.988,10.0,12.97,47.84626,-54.09684
2019-06-24 02:50:00+00:00,334.9647,9.9,12.97,47.84626,-54.09684
2019-06-24 03:00:00+00:00,335.053,9.95,12.89,47.84626,-54.09684
2019-06-24 03:10:00+00:00,336.5079,10.0,12.81,47.84626,-54.09684
2019-06-24 03:20:00+00:00,340.598,10.0,12.97,47.84626,-54.09684
2019-06-24 03:30:00+00:00,340.5779,10.0,12.97,47.84626,-54.09684
2019-06-24 03:40:00+00:00,342.1497,10.0,12.97,47.84626,-54.09684
2019-06-24 03:50:00+00:00,346.2246,10.0,12.97,47.84626,-54.09684
2019-06-24 04:00:00+00:00,348.8162,10.0,12.89,47.84626,-54.09684
2019-06-24 04:10:00+00:00,348.2614,10.02,12.81,47.84626,-54.09684
2019-06-24 04:20:00+00:00,346.918,10.02,12.89,47.84626,-54.09684
2019-06-24 04:30:00+00:00,347.278,10.0,12.89,47.84626,-54.09684
2019-06-24 04:40:00+00:00,346.5295,10.0,12.97,47.84626,-54.09684
2019-06-24 04:50:00+00:00,341.7897,10.0,12.97,47.84626,-54.09684
2019-06-24 05:00:00+00:00,337.418,9.99,12.89,47.84626,-54.09684
2019-06-24 05:10:00+00:00,334.3147,9.98,12.81,47.84626,-54.09684
2019-06-24 05:20:00+00:00,331.6931,9.95,12.89,47.84626,-54.09684
2019-06-24 05:30:00+00:00,330.3513,9.96,12.89,47.84626,-54.09684
2019-06-24 05:40:00+00:00,333.6547,9.9,12.97,47.84626,-54.09684
2019-06-24 05:50:00+00:00,333.7097,9.92,12.97,47.84626,-54.09684
2019-06-24 06:00:00+00:00,329.2596,9.94,12.89,47.84626,-54.09684
2019-06-24 06:10:00+00:00,324.9464,9.94,12.81,47.84626,-54.09684
2019-06-24 06:20:00+00:00,322.9514,9.94,12.89,47.84626,-54.09684
2019-06-24 06:30:00+00:00,318.4946,9.94,12.89,47.84626,-54.09684
2019-06-24 06:40:00+00:00,311.4564,9.93,12.89,47.84626,-54.09684
2019-06-24 06:50:00+00:00,304.9814,9.9,12.89,47.84626,-54.09684
2019-06-24 07:00:00+00:00,299.2964,9.9,12.81,47.84626,-54.09684
2019-06-24 07:10:00+00:00,292.1514,9.9,12.81,47.84626,-54.09684
2019-06-24 07:20:00+00:00,286.6348,9.9,12.89,47.84626,-54.09684
2019-06-24 07:30:00+00:00,282.9064,9.9,12.89,47.84626,-54.09684
2019-06-24 07:40:00+00:00,279.173,9.9,12.89,47.84626,-54.09684
2019-06-24 07:50:00+00:00,274.2297,9.9,12.89,47.84626,-54.09684
2019-06-24 08:00:00+00:00,267.4114,9.9,12.81,47.84626,-54.09684
2019-06-24 08:10:00+00:00,261.1114,9.99,12.73,47.84626,-54.09684
2019-06-24 08:20:00+00:00,257.353,10.1,12.81,47.84626,-54.09684
2019-06-24 08:30:00+00:00,251.5314,10.1,12.81,47.84626,-54.09684
2019-06-24 08:40:00+00:00,243.5863,10.2,12.89,47.84626,-54.09684
2019-06-24 08:50:00+00:00,240.0098,10.14,12.97,47.84626,-54.09684
2019-06-24 09:00:00+00:00,239.1797,10.18,12.89,47.84626,-54.09684
2019-06-24 09:10:00+00:00,237.1564,10.1,12.89,47.84626,-54.09684
2019-06-24 09:20:00+00:00,234.0314,10.18,13.05,47.84626,-54.09684
2019-06-24 09:30:00+00:00,233.9231,10.18,13.13,47.84626,-54.09684
2019-06-24 09:40:00+00:00,234.548,10.19,13.29,47.84626,-54.09684
2019-06-24 09:50:00+00:00,233.5647,10.1,13.44,47.84626,-54.09684
2019-06-24 10:00:00+00:00,232.6414,10.06,13.53,47.84626,-54.09684
2019-06-24 10:10:00+00:00,234.7197,10.0,13.6,47.84626,-54.09684
2019-06-24 10:20:00+00:00,237.1064,10.0,13.76,47.84626,-54.09684
2019-06-24 10:30:00+00:00,237.4764,10.0,14.0,47.84626,-54.09684
2019-06-24 10:40:00+00:00,238.4164,10.06,14.16,47.84626,-54.09684
2019-06-24 10:50:00+00:00,240.8497,10.13,14.4,47.84626,-54.09684
2019-06-24 11:00:00+00:00,243.8764,10.19,14.32,47.84626,-54.09684
2019-06-24 11:10:00+00:00,248.3631,10.1,14.48,47.84626,-54.09684
2019-06-24 11:20:00+00:00,251.2498,10.1,14.72,47.84626,-54.09684
2019-06-24 11:30:00+00:00,252.4231,10.13,14.64,47.84626,-54.09684
2019-06-24 11:40:00+00:00,253.7247,10.15,14.64,47.84626,-54.09684
2019-06-24 11:50:00+00:00,255.9731,10.1,14.72,47.84626,-54.09684
2019-06-24 12:00:00+00:00,256.2998,10.1,14.64,47.84626,-54.09684
2019-06-24 12:10:00+00:00,258.2281,10.09,14.56,47.84626,-54.09684
2019-06-24 12:20:00+00:00,259.9081,10.1,14.64,47.84626,-54.09684
2019-06-24 12:30:00+00:00,259.0331,10.1,14.64,47.84626,-54.09684
2019-06-24 12:40:00+00:00,259.4698,10.1,14.72,47.84626,-54.09684
2019-06-24 12:50:00+00:00,264.5963,10.1,14.64,47.84626,-54.09684
2019-06-24 13:00:00+00:00,268.243,10.11,14.64,47.84626,-54.09684
2019-06-24 13:10:00+00:00,271.3047,10.2,14.48,47.84626,-54.09684
2019-06-24 13:20:00+00:00,274.998,10.14,14.64,47.84626,-54.09684
2019-06-24 13:30:00+00:00,280.6914,10.08,14.64,47.84626,-54.09684
2019-06-24 13:40:00+00:00,283.368,10.1,14.64,47.84626,-54.09684
2019-06-24 13:50:00+00:00,286.6097,10.1,14.64,47.84626,-54.09684
2019-06-24 14:00:00+00:00,292.538,10.1,14.56,47.84626,-54.09684
2019-06-24 14:10:00+00:00,299.8513,10.1,14.56,47.84626,-54.09684
2019-06-24 14:20:00+00:00,302.728,10.11,14.64,47.84626,-54.09684
2019-06-24 14:30:00+00:00,305.848,10.1,14.64,47.84626,-54.09684
2019-06-24 14:40:00+00:00,312.0413,10.09,14.64,47.84626,-54.09684
2019-06-24 14:50:00+00:00,316.8264,10.1,14.64,47.84626,-54.09684
2019-06-24 15:00:00+00:00,316.8846,10.1,14.48,47.84626,-54.09684
2019-06-24 15:10:00+00:00,316.7013,10.11,14.48,47.84626,-54.09684
2019-06-24 15:20:00+00:00,318.0262,10.1,14.56,47.84626,-54.09684
2019-06-24 15:30:00+00:00,319.6513,10.05,14.48,47.84626,-54.09684
2019-06-24 15:40:00+00:00,318.6546,10.09,14.56,47.84626,-54.09684
2019-06-24 15:50:00+00:00,320.8196,10.0,14.56,47.84626,-54.09684
2019-06-24 16:00:00+00:00,325.2346,10.06,14.48,47.84626,-54.09684
2019-06-24 16:10:00+00:00,324.2914,10.2,14.4,47.84626,-54.09684
2019-06-24 16:20:00+00:00,326.1647,10.08,14.48,47.84626,-54.09684
2019-06-24 16:30:00+00:00,329.1747,10.01,14.48,47.84626,-54.09684
2019-06-24 16:40:00+00:00,328.3279,10.06,14.48,47.84626,-54.09684
2019-06-24 16:50:00+00:00,325.273,10.1,14.4,47.84626,-54.09684
2019-06-24 17:00:00+00:00,329.6746,10.1,14.32,47.84626,-54.09684
2019-06-24 17:10:00+00:00,330.5646,10.12,14.24,47.84626,-54.09684
2019-06-24 17:20:00+00:00,324.5864,10.2,14.32,47.84626,-54.09684
2019-06-24 17:30:00+00:00,323.338,10.29,14.32,47.84626,-54.09684
2019-06-24 17:40:00+00:00,327.2197,10.3,14.32,47.84626,-54.09684
2019-06-24 17:50:00+00:00,321.5764,10.32,14.24,47.84626,-54.09684
2019-06-24 18:00:00+00:00,312.298,10.36,14.16,47.84626,-54.09684
2019-06-24 18:10:00+00:00,314.718,10.3,14.08,47.84626,-54.09684
2019-06-24 18:20:00+00:00,318.4163,10.2,14.08,47.84626,-54.09684
2019-06-24 18:30:00+00:00,309.3047,10.2,14.08,47.84626,-54.09684
2019-06-24 18:40:00+00:00,304.8331,10.2,14.16,47.84626,-54.09684
2019-06-24 18:50:00+00:00,306.7297,10.1,14.16,47.84626,-54.09684
2019-06-24 19:00:00+00:00,302.598,10.1,14.08,47.84626,-54.09684
2019-06-24 19:10:00+00:00,294.1347,10.14,14.0,47.84626,-54.09684
2019-06-24 19:20:00+00:00,290.6064,10.2,14.0,47.84626,-54.09684
2019-06-24 19:30:00+00:00,288.6313,10.83,14.08,47.84626,-54.09684
2019-06-24 19:40:00+00:00,280.3931,11.9,14.08,47.84626,-54.09684
2019-06-24 19:50:00+00:00,274.0764,11.8,14.08,47.84626,-54.09684
2019-06-24 20:00:00+00:00,272.2314,12.08,14.0,47.84626,-54.09684
2019-06-24 20:10:00+00:00,267.5281,11.9,13.92,47.84626,-54.09684
2019-06-24 20:20:00+00:00,261.0064,11.2,14.0,47.84626,-54.09684
2019-06-24 20:30:00+00:00,256.0197,11.39,14.0,47.84626,-54.09684
2019-06-24 20:40:00+00:00,252.9547,11.7,14.08,47.84626,-54.09684
2019-06-24 20:50:00+00:00,247.1115,11.7,14.16,47.84626,-54.09684
2019-06-24 21:00:00+00:00,240.5131,12.07,14.0,47.84626,-54.09684
2019-06-24 21:10:00+00:00,233.5598,12.11,13.92,47.84626,-54.09684
2019-06-24 21:20:00+00:00,227.9281,12.0,13.92,47.84626,-54.09684
2019-06-24 21:30:00+00:00,226.4098,12.04,13.92,47.84626,-54.09684
2019-06-24 21:40:00+00:00,226.2981,12.2,13.84,47.84626,-54.09684
2019-06-24 21:50:00+00:00,228.0631,11.54,13.84,47.84626,-54.09684
2019-06-24 22:00:00+00:00,228.0414,11.4,13.84,47.84626,-54.09684
2019-06-24 22:10:00+00:00,227.8997,11.37,13.68,47.84626,-54.09684
2019-06-24 22:20:00+00:00,230.2981,11.48,13.68,47.84626,-54.09684
2019-06-24 22:30:00+00:00,234.1447,11.4,13.68,47.84626,-54.09684
2019-06-24 22:40:00+00:00,236.3748,11.32,13.68,47.84626,-54.09684
2019-06-24 22:50:00+00:00,235.7548,11.4,13.6,47.84626,-54.09684
2019-06-24 23:00:00+00:00,234.5731,11.4,13.44,47.84626,-54.09684
2019-06-24 23:10:00+00:00,235.9531,11.2,13.29,47.84626,-54.09684
2019-06-24 23:20:00+00:00,237.8365,11.2,13.29,47.84626,-54.09684
2019-06-24 23:30:00+00:00,238.3748,11.1,13.29,47.84626,-54.09684
2019-06-24 23:40:00+00:00,239.5015,11.1,13.29,47.84626,-54.09684
2019-06-24 23:50:00+00:00,241.2998,10.9,13.21,47.84626,-54.09684
